Погода в Бохне

Польша     49°58′29″N   20°25′31″E
темп.,
°C
ветер,
м/с
пор.,
м/с
влажн.,
%
обл.,
%
осадки,
мм/ч
давл.,
гПа
погр.,
м
28 февраля, вс
вс2801:00+1зсз498959 0.1 1035223
04:00+1з49943 0.0 1035249
07:00+1з4109215 0.0 1035346
10:00+4зсз687222 0.0 1034737
13:00+6з796511 0.0 1033736
16:00+6зсз6106828 0.0 1031740
19:00+3з5127718 0.0 1032336
22:00+4зсз498390 0.0 1032463
1 марта, пн
пн101:00+3сз369094 0.0 1033342
04:00+2сз3690100 0.0 1033335
07:00+2зсз3494100 0.0 1034185
10:00+4зсз348387 0.0 1035461
13:00+6зсз347593 0.0 1035599
16:00+6сз227171 0.0 1034692
19:00+4з128168 0.0 103522
22:00+3зюз238845 0.0 103532
2 марта, вт
вт201:00+2юз238823 0.0 103634
04:00+1зюз23880 0.0 103432
07:00+2зюз34850 0.0 103483
10:00+7з47650 0.0 1034396
13:00+10з57550 0.0 1033633
16:00+10з48580 0.0 1031539
19:00+6з34740 0.0 103289
22:00+5зюз33800 0.0 103350
3 марта, ср
ср301:00+3зюз23850 0.0 103330
04:00+2зюз23860 0.0 103235
07:00+2зюз22840 0.0 103232
10:00+7зсз24640 0.0 1031358
13:00+11зсз34500 0.0 1029715
16:00+11з23500 0.0 1027433
19:00+7юз12630 0.0 102722
22:00+5ююз22710 0.0 102722
4 марта, чт
чт401:00+4ююз12750 0.0 102522
04:00+3ююз227517 0.0 102322
07:00+3ю237557 0.0 102234
10:00+9юз255765 0.0 1019405
13:00+13з574742 0.0 10171190
16:00+12з485686 0.0 1014873
19:00+8зюз4117093 0.0 1013333
22:00+8зюз31271100 0.0 1012537